Время (UTC), дата Ветер
(°,м/с) 
Видим.   Явления Облачность Т
(°С)
Тd
(°С)
f(%) Тe
(°С)
Pmin
(гПа)
dP
(гПа)
Po
(мм)
O2
(г/м3)
Тmin Tmax R s Состояние
почвы
00 01.07.13 250 (З) 10 км  ливневой дождь  10/8 600 м кучево-дожд., средняя 
[Cb cap|Ac As]
+10 +9.2 95 +12  1003.5  1.5  728  281  +10      влажная 
03 01.07.13 290 (З) 20000 м  слаб. ливневой дождь  10/8 600 м кучево-дожд., средняя 
[Cb cap|Ac As]
+11.9 +9.6 86 +14  1005.1  1.8  729  280           
06 01.07.13 240 (ЮЗ) 20000 м  слаб. ливневой дождь  10/10 600 м кучево-дожд. 
[Cb cap]
+14.2 +8.2 67 +14  1005.5  0.6  730  278           
09 01.07.13 210 (ЮЗ) 20000 м  слаб. ливневой дождь  9/8 600 м кучево-дожд., средняя 
[Cb cap|Ac trans]
+14.2 +7.3 63 +15  1005.9  0.4  730  278           
12 01.07.13 240 (ЮЗ) 20000 м  в посл. час ливневой дождь  9/5 600 м кучево-дожд., средняя 
[Cb cap|Ac trans]
+14.2 +8.3 68 +15  1006.6  0.7  731  278    +16.2     
15 01.07.13 240 (ЮЗ) 20000 м    8/6 600 м кучево-дожд., средняя 
[Cb cap|Ac trans]
+10.7 +8.6 87 +12  1007.2  0.2  731  282           
18 01.07.13 220 (ЮЗ) 4000 м  {ливн. осадки}  9/6 600 м кучево-дожд., средняя 
[Cb cap|Ac trans]
+11.2 +7.5 78 +11  1007.8  0.2  731  282           
21 01.07.13 тихо ()   20000 м    10/8 600 м кучево-дожд., средняя 
[Cb cap|Ac As]
+9.8 +8.4 91 +10  1007.8  0.1  731  283           
00 02.07.13 050 (СВ) 20000 м    9/3 600 м средняя 
[Cu hum|Ac trans]
+11.9 +9.5 85 +14  1007.7  0.1  731  281  +9.6    0.0    влажная 
03 02.07.13 060 (СВ) 20000 м    9/8 600 м кучево-дожд., средняя 
[Cb cap|Ac trans]
+15.4 +9 66 +17  1007.4  0.1  731  277           
06 02.07.13 340 (С) 20000 м  в посл. час ливневой дождь  9/8 600 м кучево-дожд., средняя 
[Cb cap|Ac trans]
+16.1 +9.3 64 +18  1007.7  0.4  732  277           
09 02.07.13 120 (ЮВ) 20000 м  {ливн. осадки}  9/8 600 м кучево-дожд., средняя 
[Cb cap|Ac trans]
+16.9 +9.5 62 +19  1007.4  -0.2  732  276           
12 02.07.13 290 (З) 20000 м  в посл. час ливневой дождь  9/6 600 м кучево-дожд., верхняя 
[Cb cap|Ci fib]
+13.3 +11.6 89 +19  1008.2  0.4  732  279    +17.7     
15 02.07.13 270 (З) 20000 м    8/4 600 м кучево-дожд., средняя 
[Cb cap|Ac trans]
+10.6 +9.6 94 +13  1009.1  0.5  732  282           
18 02.07.13 220 (ЮЗ) 4000 м    6/3 600 м кучево-дожд., средняя 
[Cb cap|Ac trans]
+9.2 +8.6 96 +10  1009.6  0.3  732  284           
21 02.07.13 230 (ЮЗ) 20000 м    8/5 600 м кучево-дожд., средняя, верхняя 
[Cb cap|Ac trans|Ci fib]
+8.3 +7.9 97 +8  1009.7  732  285           
00 03.07.13 тихо ()   20000 м    8/3 600 м кучево-дожд., средняя, верхняя 
[Cb cap|Ac trans|Ci fib]
+12 +10.4 90 +14  1010.2  0.9  733  281  +7.6        влажная 
03 03.07.13 тихо ()   20000 м    6/6 600 м кучево-дожд. 
[Cb cap]
+17.1 +9.1 59 +18  1009.5  0.1  733  276           
06 03.07.13 тихо ()   20000 м    8/6 600 м кучево-дожд., верхняя 
[Cb cap|Ci fib]
+17.8 +8.2 53 +18  1008.8  -0.6  733  276           
09 03.07.13 070 (В) 20000 м    5/4 600 м кучево-дожд., верхняя 
[Cb cap|Ci fib]
+20.9 +7 41 +21  1007.8  -0.7  732  273           
12 03.07.13 050 (СВ) 20000 м    6/3 1000 м верхняя 
[Cu hum|Ci fib]
+20.3 +7.8 44 +20  1007.5  -0.3  732  273    +21.4       
15 03.07.13 240 (ЮЗ) 20000 м    3/3 1000 м средняя 
[Cu hum|Ac trans]
+12.4 +9 80 +14  1008.7  0.3  732  281           
18 03.07.13 240 (ЮЗ) 4000 м    9/0 верхняя 
[Ci fib]
+10.2 +7.4 83 +11  1008.7  -0.3  732  283           
21 03.07.13 240 (ЮЗ) 20000 м    6/4 2000 м средняя, верхняя 
[Ac trans|Ci fib]
+8.5 +7.5 93 +10  1008.8  0.1  732  285           
00 04.07.13 тихо ()   20000 м    9/3 1000 м средняя, верхняя 
[Cu hum|Ac trans|Ci fib]
+12.2 +8.8 80 +12  1008.5  0.1  732  281  +8.1        сухая 
03 04.07.13 100 (В) 20000 м    8/0 верхняя 
[Ci fib]
+18.1 +10.1 60 +22  1007.8  -0.2  732  275           
06 04.07.13 080 (В) 20000 м    8/4 600 м кучево-дожд., верхняя 
[Cb cap|Ci fib]
+21.2 +7.6 41 +21  1006.8  -0.7  731  272           
09 04.07.13 050 (СВ) 20000 м    9/5 600 м кучево-дожд., верхняя 
[Cb cap|Ci fib]
+22.8 +8.3 39 +23  1006  -0.6  731  270           
12 04.07.13 090 (В) 20000 м    10/3 600 м кучево-дожд., верхняя 
[Cb cap|Ci fib]
+22.1 +7.8 40 +22  1004.8  -1.2  730  271    +23.4       
15 04.07.13 230 (ЮЗ) 20000 м    9/9 2000 м средняя 
[Ac trans]
+15.4 +10.2 71 +19  1005.8  0.3  730  277           
18 04.07.13 240 (ЮЗ) 4000 м    8/3 600 м кучево-дожд., средняя 
[Cb cap|Ac trans]
+14 +10 77 +17  1005.6  -0.4  730  278           
21 04.07.13 220 (ЮЗ) 20000 м    8/3 600 м средняя 
[Cu hum|Ac trans]
+11.7 +9.7 87 +14  1004.3  -1.5  729  280           
00 05.07.13 тихо ()   20000 м    8/3 600 м средняя 
[Cu hum|Ac trans]
+15.4 +11.8 79 +20  1003.6  -0.3  729  276  +10.7        сухая 
03 05.07.13 070 (В) 20000 м    9/3 2000 м средняя, верхняя 
[Ac lent|Ci]
+20.9 +11 53 +24  1002.4  -0.5  728  271           
06 05.07.13 070 (В) 20000 м    9/8 600 м кучево-дожд., средняя, верхняя 
[Cb cap|Ac trans|Ci fib]
+21.4 +9.1 45 +22  1001.4  -1  728  270           
09 05.07.13 тихо ()   20000 м    9/8 600 м кучево-дожд., средняя 
[Cb cap|Ac trans]
+22.5 +7.4 38 +23  1000.1  -1.2  727  269           
12 05.07.13 тихо ()   20000 м    9/6 600 м кучево-дожд., средняя, верхняя 
[Cb cap|Ac trans|Ci fib]
+21.5 +10.5 49 +24  1000.1  727  269    +24.3       
15 05.07.13 230 (ЮЗ) 20000 м  {ливн. осадки}  10/8 600 м кучево-дожд., средняя 
[Cb cap|Ac trans]
+14.2 +12.6 90 +21  1001.5  0.6  727  276           
18 05.07.13 тихо ()   4000 м  {ливн. осадки}  6/4 600 м кучево-дожд., верхняя 
[Cb cap|Ci fib]
+14.5 +12.5 88 +20  1001.9  0.6  727  276           
21 05.07.13 240 (ЮЗ) 20000 м    10/3 600 м кучево-дожд., верхняя 
[Cb cap|Ci fib]
+13.3 +11.5 89 +18  1002.3  0.1  727  277           
00 06.07.13 тихо ()   20000 м    10/3 2000 м средняя, верхняя 
[Ac trans|Ci fib]
+18.4 +13.4 73 +25  1001.9  0.3  728  272  +11.7    0.6    сухая 
03 06.07.13 050 (СВ) 20000 м    9/3 600 м средняя, верхняя 
[Cu med, cong|Ac trans|Ci fib]
+21.4 +13.4 60 +28  1001.9  0.4  728  269           
06 06.07.13 240 (ЮЗ) 20000 м  гроза без осадков  8/5 600 м кучево-дожд., средняя, верхняя 
[Cb cap|Ac trans|Ci fib]
+22.9 +12 50 +27  1001.4  -0.4  728  268           
12 06.07.13 260 (З) 20000 м  {гроза, ливн. осадки}  8/4 600 м кучево-дожд., средняя, верхняя 
[Cb cap|Ac trans|Ci fib]
+20.7 +11.7 56 +25  1003.2  729  271    +23.5  0.0     
15 06.07.13 230 (ЮЗ) 20000 м    6/3 600 м кучево-дожд., средняя, верхняя 
[Cb cap|Ac lent|Ci fib]
+16.4 +11.6 73 +21  1004.8  1.1  730  275           
18 06.07.13 230 (ЮЗ) 4000 м    8/0 верхняя 
[Ci fib]
+15.5 +12.8 84 +22  1005.3  0.4  730  276           
21 06.07.13 240 (ЮЗ) 20000 м    9/8 600 м кучево-дожд., верхняя 
[Cb cap|Ci fib]
+14.8 +11.9 83 +19  1005.6  0.2  730  277           
00 07.07.13 220 (ЮЗ) 4{11}  20000 м    9/6 600 м кучево-дожд., верхняя 
[Cb cap|Ci fib]
+15.4 +11.9 80 +19  1006.4  0.9  731  276  +14.3        сухая 
03 07.07.13 220 (ЮЗ) 20000 м    8/3 2000 м средняя, верхняя 
[Ac trans|Ci fib]
+21.4 +13.1 59 +28  1006  0.2  731  270           
06 07.07.13 260 (З) 20000 м    9/8 600 м кучево-дожд., верхняя 
[Cb calv|Ci fib]
+21.4 +13.1 59 +28  1006  -0.2  731  270           
09 07.07.13 330 (СЗ) 20000 м    9/8 600 м кучево-дожд., средняя, верхняя 
[Cb calv|Ac trans|Ci fib]
+25.6 +8.7 34 +26  1004.7  -0.6  730  268           
12 07.07.13 320 (СЗ) 20000 м    8/3 600 м кучево-дожд., верхняя 
[Cb calv|Ci fib]
+25.4 +8.1 33 +25  1004.7  730  268    +26.5       
15 07.07.13 240 (ЮЗ) 20000 м    6/3 2000 м средняя, верхняя 
[Ac trans|Ci fib]
+19.1 +9.7 54 +21  1006.1  0.6  731  273           
18 07.07.13 220 (ЮЗ) 4000 м    4/3 2000 м средняя, верхняя 
[Ac trans|Ci fib]
+18.6 +10.6 60 +21  1006.2  0.1  731  274           
21 07.07.13 230 (ЮЗ) 20000 м    8/5 600 м кучево-дожд., средняя, верхняя 
[Cb cap|Ac trans|Ci fib]
+17.3 +11.3 68 +21  1005.9  -0.4  731  275           
00 08.07.13 220 (ЮЗ) 20000 м    6/0 верхняя 
[Ci fib]
+17.9 +11.7 67 +22  1006  0.1  731  274  +17.2        сухая 
03 08.07.13 230 (ЮЗ) 20000 м    9/8 2000 м средняя, верхняя 
[Ac trans|Ci fib]
+21.2 +12.5 58 +26  1004.9  -0.6  730  271           
06 08.07.13 240 (ЮЗ) 20000 м    8/8 600 м кучево-дожд. 
[Cb cap]
+24.8 +12 45 +29  1003.4  -1.1  729  267           
09 08.07.13 220 (ЮЗ) 3{10}  20000 м    4/4 600 м кучево-дожд. 
[Cb cap]
+25.7 +10.2 38 +28  1001.4  -1.9  728  266           
12 08.07.13 230 (ЮЗ) 20000 м    6/6 600 м кучево-дожд. 
[Cb cap]
+23.8 +10.8 44 +27  1001.3  -0.3  728  268    +26.3       
15 08.07.13 240 (ЮЗ) 20000 м  в посл. час гроза  10/10 600 м кучево-дожд. 
[Cb cap]
+17 +12.9 77 +24  1003  728  274           
18 08.07.13 220 (ЮЗ) 4000 м  {гроза, ливн. осадки}  8/3 600 м кучево-дожд., средняя, верхняя 
[Cb cap|Ac trans|Ci fib]
+17.2 +10.8 66 +21  1002.2  -0.7  728  274           
21 08.07.13 230 (ЮЗ) 20000 м    10/5 600 м кучево-дожд., средняя, верхняя 
[Cb cap|Ac trans|Cs]
+16.1 +11.3 73 +21  1001.8  -0.5  727  275           
00 09.07.13 310 (СЗ) 20000 м  слаб. ливневой дождь  10/10 300 м кучево-дожд. 
[Cb cap]
+14.3 +13.5 95 +23  1003.3  1.3  728  276  +14.3      влажная 
06 09.07.13 320 (СЗ) 20000 м  {ливн. осадки}  9/9 600 м кучево-дожд., средняя 
[Cb cap|Ac trans]
+15.9 +11 73 +20  1005.9  0.8  730  276           
09 09.07.13 250 (З) 20000 м    8/6 600 м кучево-дожд., верхняя 
[Cb cap|Ci fib]
+18.1 +9.6 58 +21  1005.5  -0.2  730  274           
12 09.07.13 320 (СЗ) 20000 м    9/4 600 м кучево-дожд., средняя 
[Cb cap|Ac trans]
+16.7 +9.8 64 +19  1006.4  0.8  731  276    +18.5     
15 09.07.13 220 (ЮЗ) 20000 м    10/10 600 м кучево-дожд. 
[Cb cap]
+14 +9.8 76 +16  1007.5  0.7  731  278           
18 09.07.13 220 (ЮЗ) 4000 м    10/10 600 м кучево-дожд. 
[Cb cap]
+13.3 +10 80 +17  1007.5  731  279           
21 09.07.13 230 (ЮЗ) 20000 м    10/10 600 м кучево-дожд. 
[Cb cap]
+13.4 +9.7 78 +15  1007.4  0.1  731  279           
00 10.07.13 200 (Ю) 20000 м    10/10 600 м кучево-дожд. 
[Cb cap]
+14.2 +10.9 81 +18  1007.6  0.3  731  278  +12        влажная 
03 10.07.13 160 (Ю) 20000 м    9/5 600 м кучево-дожд., средняя, верхняя 
[Cb cap|Ac trans|Ci fib]
+17.5 +9.3 59 +20  1007.2  731  275           
06 10.07.13 120 (ЮВ) 20000 м    9/6 600 м кучево-дожд., средняя 
[Cb cap|Ac As]
+19.5 +8.8 50 +21  1005.8  -1.1  731  273           
09 10.07.13 100 (В) 20000 м    8/4 600 м кучево-дожд., средняя, верхняя 
[Cb cap|Ac trans|Ci fib]
+21 +9.9 49 +23  1004.8  -0.8  730  271           
12 10.07.13 тихо ()   20000 м    8/6 600 м кучево-дожд., средняя, верхняя 
[Cb cap|Ac trans|Ci fib]
+19.8 +11 57 +23  1004.8  -0.2  730  272    +21.2       
15 10.07.13 230 (ЮЗ) 20000 м    9/3 2000 м средняя, верхняя 
[Ac trans|Ci fib]
+14.2 +10.4 78 +17  1005.5  0.1  730  278           
18 10.07.13 тихо ()   4000 м    8/3 600 м средняя 
[Cu hum|Ac trans]
+12.1 +9.8 86 +14  1004.9  -0.8  729  280           
21 10.07.13 230 (ЮЗ) 10 км  слаб. ливневой дождь  10/10 600 м кучево-дожд. 
[Cb cap]
+12.5 +11.7 95 +18  1005.4  -0.8  730  279           
00 11.07.13 тихо ()   20000 м  в посл. час ливневой дождь  10/10 300 м кучево-дожд. 
[Cb cap]
+12.8 +12.4 97 +18  1005.6  0.2  730  278  +12.1      влажная 
03 11.07.13 240 (ЮЗ) 20000 м  слаб. ливневой дождь  10/10 600 м кучево-дожд. 
[Cb cap]
+14.8 +12.6 87 +20  1005.8  0.4  730  277           
06 11.07.13 240 (ЮЗ) 20000 м  слаб. ливневой дождь  10/10 600 м кучево-дожд. 
[Cb cap]
+13 +11.4 90 +18  1007.5  1.5  731  279           
09 11.07.13 220 (ЮЗ) 20000 м  {ливн. осадки}  8/8 600 м кучево-дожд. 
[Cb cap]
+16.2 +11.6 74 +22  1007.9  0.7  732  276           
12 11.07.13 250 (З) 20000 м  {ливн. осадки}  6/4 600 м кучево-дожд., средняя, верхняя 
[Cb cap|Ac trans|Ci fib]
+17.3 +9 58 +18  1009.4  1.5  733  276    +19     
15 11.07.13 230 (ЮЗ) 20000 м  в посл. час ливневой дождь  8/5 600 м кучево-дожд., средняя, верхняя 
[Cb cap|Ac trans|Ci fib]
+13 +10.5 85 +15  1011.3  1.4  734  280           
18 11.07.13 230 (ЮЗ) 4000 м  {ливн. осадки}  8/4 2000 м средняя, верхняя 
[Ac trans|Ci fib]
+13.2 +9.2 77 +14  1011.6  0.3  734  281           
21 11.07.13 230 (ЮЗ) 20000 м    10/10 600 м кучево-дожд. 
[Cb cap]
+13.5 +8.5 72 +13  1011.7  0.2  734  280           
00 12.07.13 240 (ЮЗ) 20000 м  {ливн. осадки}  4/3 2000 м средняя, верхняя 
[Ac trans|Ci fib]
+13.3 +10 80 +16  1012.4  0.6  735  280  +11.6      влажная 
03 12.07.13 230 (ЮЗ) 20000 м    8/6 600 м кучево-дожд., верхняя 
[Cb cap|Ci fib]
+17.6 +11 65 +21  1012  0.1  735  276           
06 12.07.13 280 (З) 20000 м    8/8 600 м кучево-дожд. 
[Cb cap]
+19.3 +8.9 51 +20  1011.7  0.1  735  275           
09 12.07.13 290 (З) 20000 м    8/6 600 м кучево-дожд., средняя 
[Cb cap|Ac trans]
+21.9 +8 41 +22  1011  -0.4  735  273           
12 12.07.13 280 (З) 20000 м    6/4 600 м кучево-дожд., средняя, верхняя 
[Cb cap|Ac trans|Ci fib]
+21.2 +8 43 +21  1011.3  0.2  735  273    +22.5       
15 12.07.13 240 (ЮЗ) 20000 м    6/6 600 м кучево-дожд. 
[Cb cap]
+14.2 +10.2 77 +17  1013.2  1.1  736  280           
18 12.07.13 230 (ЮЗ) 4000 м    9/0 верхняя 
[Ci fib]
+12.2 +9.3 82 +14  1013.6  736  282           
21 12.07.13 250 (З) 20000 м    9/0 верхняя 
[Ci fib]
+10.1 +8.9 92 +11  1013.8  736  284           
00 13.07.13 тихо ()   20000 м    ясно 
+15.4 +10.3 72 +17  1013.9  0.7  736  279  +9.6        сухая 
03 13.07.13 030 (СВ) 20000 м    4/3 600 м кучево-дожд., верхняя 
[Cb calv|Ci fib]
+20 +11.4 58 +23  1013.2  0.7  736  274           
06 13.07.13 090 (В) 20000 м    5/5 600 м кучево-дожд. 
[Cb calv]
+22.3 +9.3 43 +23  1012.4  -0.5  736  272           
09 13.07.13 тихо ()   20000 м    5/3 600 м кучево-дожд., верхняя 
[Cb calv|Ci fib]
+24.3 +8.9 38 +24  1011.2  -1  735  270           
12 13.07.13 050 (СВ) 20000 м    3/3 600 м кучево-дожд. 
[Cb calv]
+23.3 +9.7 42 +24  1010.9  -0.4  735  271    +24.5       
15 13.07.13 240 (ЮЗ) 20000 м    ясно 
+16 +11 72 +20  1011.8  0.1  735  278           
18 13.07.13 230 (ЮЗ) 4000 м    ясно 
+13.6 +10.3 80 +17  1011.8  -0.2  734  280           
21 13.07.13 240 (ЮЗ) 20000 м    3/0 верхняя 
[Ci fib]
+10.9 +9.8 93 +13  1011.9  -0.2  734  283           
00 14.07.13 тихо ()   10 км    3/0 верхняя 
[Ci fib]
+15.8 +11.5 76 +19  1011.7  0.3  735  278  +10.4        сухая 
03 14.07.13 040 (СВ) 20000 м    3/0 верхняя 
[Ci fib]
+21.5 +12.5 57 +27  1010.6  -0.4  734  272           
06 14.07.13 090 (В) 20000 м    3/3 600 м 
[Cu med, cong]
+24.7 +11.1 42 +28  1009  -1.2  733  269           
09 14.07.13 040 (СВ) 20000 м    3/3 600 м 
[Cu med, cong]
+25.9 +9.3 35 +27  1007.8  -1.1  733  268           
12 14.07.13 050 (СВ) 20000 м    3/3 600 м 
[Cu hum]
+24.7 +10.3 40 +27  1007.5  -0.4  732  269    +26.1       
15 14.07.13 240 (ЮЗ) 20000 м    4/3 2000 м средняя, верхняя 
[Ac trans|Ci fib]
+17 +12 72 +22  1008.4  -0.1  732  275           
18 14.07.13 240 (ЮЗ) 4000 м    ясно 
+14.4 +11.4 82 +20  1008.7  732  278           
21 14.07.13 230 (ЮЗ) 20000 м    3/0 верхняя 
[Ci fib]
+12.4 +10.9 91 +17  1009.3  0.4  733  280           
00 15.07.13  ()       н/о 
                   
03 15.07.13 050 (СВ) 20000 м    ясно 
+21.6 +12.6 57 +27  1008.6  0.4  733  271           
06 15.07.13 070 (В) 20000 м    3/3 600 м кучево-дожд. 
[Cb cap]
+25.9 +9.1 35 +26  1007.1  -1  732  268           
09 15.07.13 050 (СВ) 20000 м    3/3 600 м кучево-дожд. 
[Cb cap]
+26.5 +9.2 34 +27  1006.6  -0.4  732  267           
12 15.07.13 060 (СВ) 20000 м    1/1 600 м 
[Cu hum]
+24.7 +9.9 39 +26  1006.8  732  269    +26.6       
15 15.07.13 110 (В) 20000 м    ясно 
+19.6 +8.8 50 +21  1008  0.6  732  274           
18 15.07.13 240 (ЮЗ) 4000 м    ясно 
+13.7 +10.1 79 +17  1009.2  0.6  733  279           
21 15.07.13 240 (ЮЗ) 20000 м    ясно 
+11.6 +10 90 +15  1010.1  0.6  733  281           
00 16.07.13 тихо ()   20000 м    ясно 
+16.7 +10.7 68 +19  1009.9  0.4  733  276  +11.4        сухая 
03 16.07.13 060 (СВ) 20000 м    ясно 
+21.3 +12 55 +26  1009.2  -0.2  733  272           
06 16.07.13 080 (В) 20000 м    6/6 1000 м 
[Cu med, cong]
+24.5 +11.3 44 +28  1008  -0.8  733  269           
09 16.07.13 060 (СВ) 20000 м    6/6 1000 м 
[Cu med, cong]
+25.8 +8.6 34 +26  1007.3  -0.6  732  268           
12 16.07.13 070 (В) 20000 м    6/6 1000 м 
[Cu med, cong]
+24.6 +8.5 36 +25  1007.3  0.1  732  269    +25.9       
15 16.07.13 240 (ЮЗ) 20000 м    1/1 600 м 
[Cu hum]
+17.7 +12.1 70 +24  1009  0.9  733  275           
18 16.07.13 240 (ЮЗ) 4000 м    3/3 2000 м средняя 
[Ac trans]
+14.8 +10.9 77 +18  1008.9  -0.4  732  278           
21 16.07.13 240 (ЮЗ) 20000 м    3/3 2000 м средняя 
[Ac trans]
+13.7 +9.9 78 +15  1009.2  0.3  733  279           
00 17.07.13 тихо ()   20000 м    8/3 600 м верхняя 
[Cu hum|Ci fib]
+14.7 +12.3 86 +20  1009.4  0.3  733  278  +13        сухая 
03 17.07.13 050 (СВ) 20000 м    3/0 верхняя 
[Ci fib]
+22.6 +11.6 50 +26  1008.4  -0.1  733  270           
06 17.07.13 060 (СВ) 20000 м    9/0 верхняя 
[Ci fib]
+26 +12.2 42 +31  1007.3  -0.6  732  267           
09 17.07.13 040 (СВ) 20000 м    10/3 600 м верхняя 
[Cu med, cong|Cs]
+27.2 +11.7 38 +31  1006.4  -0.8  732  266           
12 17.07.13 080 (В) 20000 м    9/5 600 м кучево-дожд., верхняя 
[Cb cap|Ci fib]
+26.1 +12.3 42 +31  1006.5  732  267    +27.6       
15 17.07.13 240 (ЮЗ) 20000 м  {гроза}  9/5 600 м кучево-дожд., верхняя 
[Cb cap|Ci fib]
+19.4 +14.6 74 +30  1008  0.5  732  272           
18 17.07.13 тихо ()   4000 м  {гроза}  9/0 верхняя 
[Ci fib]
+17.3 +13.8 80 +25  1008  -0.2  732  275           
21 17.07.13 240 (ЮЗ) 20000 м    9/6 1000 м верхняя 
[Sc diur, vesp|Ci fib]
+14.9 +12.9 88 +22  1008.5  0.3  732  277           
00 18.07.13 тихо ()   20000 м    10/8 600 м кучево-дожд., средняя, верхняя 
[Cb cap|Ac trans|Ci fib]
+16.5 +14.8 90 +25  1008.6  0.2  732  275  +14.3        сухая 
03 18.07.13 090 (В) 20000 м    10/6 2000 м средняя, верхняя 
[Ac trans|Cs]
+22.4 +12.4 53 +27  1007.8  -0.2  732  270           
06 18.07.13 110 (В) 20000 м    10/8 2000 м средняя, верхняя 
[Ac trans|Cs]
+25.2 +11.7 43 +29  1006.7  -0.7  732  268           
09 18.07.13 100 (В) 20000 м    10/6 600 м кучево-дожд., средняя, верхняя 
[Cb cap|Ac trans|Cs]
+26.8 +9.7 34 +28  1005.5  -1  731  266           
12 18.07.13 070 (В) 20000 м    9/6 2000 м средняя, верхняя 
[Ac trans|Ci fib]
+26.5 +10.8 37 +29  1004.6  -0.9  730  266    +27.3       
15 18.07.13 240 (ЮЗ) 20000 м    5/0 верхняя 
[Ci fib]
+18.4 +12.1 67 +24  1005.7  0.2  730  273           
18 18.07.13 230 (ЮЗ) 4000 м    5/0 верхняя 
[Ci fib]
+16.8 +11.6 71 +22  1005.7  -0.2  730  275           
21 18.07.13 тихо ()   20000 м    9/3 600 м верхняя 
[Cu med, cong|Ci fib]
+13.5 +11.7 89 +18  1005.5  -0.5  730  278           
00 19.07.13 тихо ()   20000 м    9/8 600 м кучево-дожд., верхняя 
[Cb cap|Ci fib]
+16.5 +14.5 88 +25  1004.9  -0.2  730  274  +13.5        сухая 
03 19.07.13 200 (Ю) 4000 м  ливневой дождь  10/10 600 м кучево-дожд. 
[Cb cap]
+15.2 +14.5 96 +25  1006.8  1.7  731  276           
06 19.07.13 тихо ()   2000 м  ливневой дождь  10/10 300 м кучево-дожд. 
[Cb cap]
+16.3 +15.8 97 +27  1006.2  -0.4  731  274           
09 19.07.13 010 (С) 20000 м  {ливн. осадки}  9/3 600 м кучево-дожд., средняя, верхняя 
[Cb cap|Ac trans|Ci fib]
+20.9 +16.6 76 +33  1003.7  -1.9  729  269           
12 19.07.13 тихо ()   20000 м  {ливн. осадки}  9/4 600 м кучево-дожд., средняя, верхняя 
[Cb cap|Ac trans|Ci fib]
+21 +17 78 +34  1003.4  -0.3  729  269    +23.2  18     
15 19.07.13 240 (ЮЗ) 20000 м    9/4 600 м кучево-дожд., средняя 
[Cb cap|Ac trans]
+17 +16.3 96 +30  1003.7  -0.1  729  273           
18 19.07.13 тихо ()   4000 м    6/3 2000 м средняя, верхняя 
[Ac trans|Ci fib]
+14.8 +14.4 97 +23  1004.2  0.2  729  276           
21 19.07.13 тихо ()   20000 м    10/10 600 м кучево-дожд. 
[Cb cap]
+15.2 +14.9 98 +24  1004.2  729  275           
00 20.07.13 тихо ()   20000 м    10/10 600 м кучево-дожд. 
[Cb cap]
+16.2 +15.5 96 +27  1004.3  0.2  729  274  +14.3        влажная 
03 20.07.13 070 (В) 20000 м  {туман}  10/10 600 м кучево-дожд. 
[Cb cap]
+19 +16.1 83 +32  1003.9  0.1  729  271           
06 20.07.13 060 (СВ) 20000 м  {туман}  8/8 600 м кучево-дожд. 
[Cb cap]
+23 +17 69 +36  1003  -0.4  729  267           
09 20.07.13 060 (СВ) 20000 м  гроза, ливневой дождь  10/10 600 м кучево-дожд. 
[Cb cap]
+17.8 +16.6 93 +31  1004.3  0.7  729  272           
12 20.07.13 тихо ()   20000 м  {гроза, ливн. осадки}  9/8 600 м кучево-дожд., средняя 
[Cb cap|Ac trans]
+18.4 +17 92 +32  1004.7  0.5  730  272    +24.4     
15 20.07.13 240 (ЮЗ) 20000 м    9/5 600 м кучево-дожд., средняя, верхняя 
[Cb cap|Ac trans|Ci fib]
+16 +15.4 96 +27  1004.8  -0.2  730  274           
18 20.07.13 240 (ЮЗ) 4000 м    8/3 600 м кучево-дожд., верхняя 
[Cb cap|Ci fib]
+14.4 +14 97 +24  1004.7  -0.2  729  276           
21 20.07.13 250 (З) 20000 м    9/8 600 м кучево-дожд., верхняя 
[Cb cap|Ci fib]
+14.5 +14.2 98 +24  1004.1  -0.5  729  276           
00 21.07.13 тихо ()   20000 м    8/8 600 м кучево-дожд. 
[Cb cap]
+15.4 +14.3 93 +24  1004.5  0.5  729  275  +13.5        влажная 
03 21.07.13 080 (В) 20000 м    9/4 600 м кучево-дожд., средняя, верхняя 
[Cb cap|Ac trans|Ci fib]
+20.1 +15.5 75 +30  1003.8  -0.2  729  270           
06 21.07.13 070 (В) 20000 м  {гроза}  9/6 600 м кучево-дожд., средняя, верхняя 
[Cb cap|Ac trans|Ci fib]
+22.6 +15.8 65 +33  1003.3  -0.2  729  268           
09 21.07.13 090 (В) 20000 м    9/8 600 м кучево-дожд., средняя, верхняя 
[Cb cap|Ac trans|Ci fib]
+23.6 +15.6 61 +34  1002.6  -0.6  729  267           
12 21.07.13 090 (В) 20000 м  гроза, ливневой дождь  10/6 600 м кучево-дожд., средняя 
[Cb cap|As op]
+21.3 +16.1 72 +33  1003.9  729  269    +25.2  0.0     
15 21.07.13 230 (ЮЗ) 20000 м  {гроза, ливн. осадки}  8/3 600 м кучево-дожд., средняя 
[Cb cap|Ac trans]
+16.7 +15.1 90 +28  1005  0.6  730  274           
18 21.07.13 250 (З) 4000 м  {гроза, ливн. осадки}  9/4 2000 м средняя, верхняя 
[Ac trans|Ci fib]
+15.4 +14.5 94 +26  1004.5  -0.6  729  275           
21 21.07.13 240 (ЮЗ) 20000 м    9/6 600 м верхняя 
[Cu med, cong|Ci fib]
+14.5 +13.9 96 +24  1004.5  -0.6  729  276           
00 22.07.13 тихо ()   20000 м    9/8 600 м кучево-дожд., средняя 
[Cb cap|Ac trans]
+16.6 +13.6 82 +24  1004.8  0.5  730  274  +14.5    0.0    влажная 
03 22.07.13 080 (В) 20000 м  {ливн. осадки}  8/4 600 м средняя, верхняя 
[Cu med, cong|Ac trans|Ci fib]
+20.5 +13.6 65 +28  1004.6  0.3  730  271           
06 22.07.13 060 (СВ) 20000 м  {ливн. осадки}  3/3 600 м 
[Cu med, cong]
+24.3 +12.9 49 +30  1003.5  -0.7  729  267           
09 22.07.13 090 (В) 20000 м    3/3 600 м 
[Cu hum]
+25.7 +11.7 42 +30  1002.9  -0.5  729  266           
12 22.07.13 080 (В) 4{10}  20000 м    5/3 600 м верхняя 
[Cu med, cong|Ci fib]
+23.5 +12.7 51 +29  1003.7  0.6  729  268    +26  0.0     
15 22.07.13 070 (В) 3{10}  20000 м    9/4 2000 м средняя, верхняя 
[Ac trans|Ci fib]
+19.1 +11.8 63 +24  1004.7  0.5  730  273           
18 22.07.13 240 (ЮЗ) 4000 м    9/3 2000 м средняя, верхняя 
[Ac trans|Ci fib]
+13.7 +12.1 90 +20  1004.6  -0.7  729  277           
21 22.07.13 270 (З) 20000 м    9/5 600 м кучево-дожд., верхняя 
[Cb cap|Ci fib]
+12.2 +11.6 96 +17  1004.3  -0.5  729  279           
00 23.07.13 тихо ()   20000 м    9/6 600 м кучево-дожд., средняя, верхняя 
[Cb cap|Ac lent|Ci fib]
+16.3 +12.7 79 +22  1004.1  0.3  729  275  +12.2        сухая 
03 23.07.13 080 (В) 20000 м    10/8 600 м кучево-дожд., средняя 
[Cb cap|Ac As]
+18.4 +13.4 73 +26  1003.7  -0.2  729  272           
06 23.07.13 070 (В) 20000 м    10/10 600 м кучево-дожд. 
[Cb cap]
+21 +13.3 61 +28  1003.5  0.1  729  270           
09 23.07.13 180 (Ю) 20000 м    10/10 600 м кучево-дожд. 
[Cb cap]
+19.6 +13.9 70 +28  1004.8  1.1  730  272           
12 23.07.13 260 (З) 20000 м  в посл. час ливневой дождь  10/8 600 м кучево-дожд., средняя 
[Cb cap|Ac As]
+17.3 +15.6 90 +29  1006.3  1.2  731  274    +21.2  0.0     
15 23.07.13 240 (ЮЗ) 20000 м    10/5 600 м кучево-дожд., верхняя 
[Cb cap|Cs]
+15.8 +14.8 94 +26  1007  0.5  731  275           
18 23.07.13 240 (ЮЗ) 4000 м    10/4 600 м кучево-дожд., средняя, верхняя 
[Cb cap|Ac trans|Cs]
+14.9 +14 94 +24  1007.1  731  276           
21 23.07.13 250 (З) 20000 м    10/10 2000 м 
[Ac As]
+14.2 +13.6 96 +22  1006.9  -0.3  731  277           
00 24.07.13 тихо ()   20000 м    10/3 600 м кучево-дожд., средняя, верхняя 
[Cb cap|Ac lent|Cs]
+16.2 +13.8 86 +23  1007.2  0.5  731  275  +13.9        сухая 
03 24.07.13 060 (СВ) 20000 м    9/8 600 м кучево-дожд., средняя, верхняя 
[Cb cap|Ac trans|Ci fib]
+19.9 +13.4 66 +28  1007  0.2  731  272           
06 24.07.13 090 (В) 20000 м    10/10 600 м кучево-дожд. 
[Cb cap]
+22 +13.2 57 +28  1006.4  -0.3  731  270           
09 24.07.13 060 (СВ) 20000 м    8/6 600 м кучево-дожд., средняя 
[Cb cap|Ac trans]
+22.5 +14.1 59 +30  1005.8  -0.4  731  269           
12 24.07.13 060 (СВ) 20000 м    8/8 600 м кучево-дожд., средняя 
[Cb cap|Ac trans]
+21.5 +13.5 60 +28  1005.9  0.1  731  270    +23.3       
15 24.07.13 тихо ()   4000 м    8/4 600 м кучево-дожд., средняя 
[Cb cap|Ac trans]
+16.3 +14.1 87 +24  1006.8  0.3  731  275           
18 24.07.13 240 (ЮЗ) 4000 м    6/3 2000 м средняя, верхняя 
[Ac trans|Ci fib]
+14.9 +13.5 91 +23  1007.2  0.3  731  277           
21 24.07.13 240 (ЮЗ) 4000 м    3/3 2000 м средняя 
[Ac trans]
+12.7 +12.2 97 +19  1007.2  -0.3  731  279           
00 25.07.13 тихо ()   20000 м  {туман}  9/8 600 м кучево-дожд., средняя, верхняя 
[Cb cap|Ac trans|Ci fib]
+15.2 +14 93 +23  1007.2  0.3  731  276  +12.3        сухая 
03 25.07.13 060 (СВ) 20000 м    9/3 2000 м средняя, верхняя 
[Ac trans|Ci fib]
+20 +12.8 63 +26  1006.4  -0.2  731  272           
06 25.07.13 040 (СВ) 20000 м    9/8 600 м кучево-дожд., верхняя 
[Cb cap|Ci fib]
+23.6 +12.7 50 +29  1005.2  -0.9  731  268           
09 25.07.13 050 (СВ) 20000 м  в посл. час ливневой дождь  10/10 600 м кучево-дожд. 
[Cb cap]
+22.2 +13.9 59 +30  1005  -0.3  730  269           
12 25.07.13 070 (В) 20000 м  {ливн. осадки}  9/3 600 м кучево-дожд., средняя, верхняя 
[Cb cap|Ac trans|Ci fib]
+23.6 +13.2 52 +30  1004.6  -0.3  730  268    +23.9  0.0     
15 25.07.13 240 (ЮЗ) 4000 м    8/8 600 м кучево-дожд. 
[Cb cap]
+17.4 +13.7 79 +25  1005.7  0.4  730  274           
18 25.07.13 220 (ЮЗ) 4000 м    8/8 600 м кучево-дожд. 
[Cb cap]
+16.1 +13.4 84 +24  1005.7  -0.2  730  275           
21 25.07.13 240 (ЮЗ) 4000 м    6/4 600 м кучево-дожд., верхняя 
[Cb cap|Ci fib]
+14 +12.6 91 +20  1005.6  -0.3  730  277           
00 26.07.13 тихо ()   20000 м    4/3 600 м кучево-дожд., верхняя 
[Cb cap|Ci fib]
+18 +12.6 71 +23  1005.6  0.5  730  274  +13.4        сухая 
03 26.07.13 040 (СВ) 20000 м    9/3 2000 м средняя, верхняя 
[Ac trans|Ci]
+21.7 +13.5 60 +29  1004.8  -0.4  730  270           
06 26.07.13 110 (В) 20000 м    3/3 1000 м 
[Cu med, cong]
+25.3 +9.4 37 +26  1003.6  -0.8  729  267           
09 26.07.13 040 (СВ) 20000 м    4/3 1000 м верхняя 
[Cu med, cong|Ci fib]
+26.3 +7.1 29 +26  1002.9  -0.6  729  267           
12 26.07.13 тихо ()   20000 м    4/0 верхняя 
[Ci fib]
+24.9 +6.9 32 +25  1003  0.1  729  268    +26.6       
15 26.07.13 240 (ЮЗ) 4000 м    8/3 1000 м средняя, верхняя 
[Cu med, cong|Ac trans|Ci fib]
+16.1 +8.9 62 +17  1004.5  0.6  729  276           
18 26.07.13 240 (ЮЗ) 4000 м    8/3 600 м кучево-дожд., верхняя 
[Cb cap|Ci fib]
+14.3 +8 66 +15  1004.3  -0.4  729  278           
21 26.07.13 тихо ()   4000 м    9/8 600 м кучево-дожд., средняя 
[Cb cap|Ac trans]
+13.3 +9.1 76 +14  1004.5  0.1  729  278           
00 27.07.13 тихо ()   20000 м    9/8 600 м кучево-дожд., средняя 
[Cb cap|Ac trans]
+14.9 +11.1 78 +18  1004.5  0.2  729  277  +12.3        сухая 
03 27.07.13 тихо ()   20000 м    9/4 600 м кучево-дожд., средняя, верхняя 
[Cb cap|Ac trans|Ci fib]
+19.3 +11.9 62 +24  1004.1  729  272           
06 27.07.13 тихо ()   10 км  ливневой дождь  10/10 600 м кучево-дожд. 
[Cb cap]
+16.9 +14.8 87 +26  1004.6  0.3  730  274           
09 27.07.13 тихо ()   20000 м  в посл. час ливневой дождь  9/6 600 м кучево-дожд., средняя 
[Cb cap|Ac lent]
+20.2 +17.1 82 +34  1003.6  -0.6  729  270           
12 27.07.13 170 (Ю) 20000 м  слаб. ливневой дождь  9/8 600 м кучево-дожд., средняя 
[Cb cap|Ac lent]
+16.8 +14.8 88 +27  1004.8  0.7  730  274    +20.2     
15 27.07.13 230 (ЮЗ) 4000 м  {ливн. осадки}  10/10 600 м кучево-дожд. 
[Cb cap]
+15.3 +14.5 95 +26  1004.5  -0.5  729  275           
18 27.07.13 230 (ЮЗ) 4000 м  {ливн. осадки}  10/10 600 м кучево-дожд. 
[Cb cap]
+14.7 +14.2 97 +24  1004.2  -0.3  729  276           
21 27.07.13 тихо ()   4000 м  слаб. ливневой дождь  10/10 600 м кучево-дожд. 
[Cb cap]
+15 +14.5 97 +24  1004.1  0.1  729  275           
00 28.07.13 тихо ()   20000 м  {ливн. осадки}  10/8 600 м кучево-дожд., средняя 
[Cb cap|Ac trans]
+15.9 +15.4 97 +26  1003.7  -0.3  729  274  +14.5      влажная 
03 28.07.13 тихо ()   20000 м    10/8 600 м кучево-дожд., средняя 
[Cb cap|Ac As]
+18.4 +15.7 84 +29  1003.3  -0.1  729  272           
06 28.07.13 тихо ()   20000 м    10/5 600 м кучево-дожд., средняя 
[Cb cap|Ac As]
+20.1 +14.9 72 +29  1002.6  -0.5  728  270           
09 28.07.13 тихо ()   20000 м  слаб. ливневой дождь  9/6 600 м кучево-дожд., средняя 
[Cb cap|Ac trans]
+21.5 +16.2 72 +33  1001.8  -0.6  728  268           
12 28.07.13 тихо ()   20000 м  {ливн. осадки}  8/3 600 м кучево-дожд., средняя 
[Cb cap|Ac trans]
+23.1 +15.7 63 +34  1001.1  -0.5  728  267    +23.2  0.0     
15 28.07.13 240 (ЮЗ) 4000 м    3/3 2000 м средняя 
[Ac trans]
+16.8 +14.7 87 +27  1001.3  -0.5  727  273           
18 28.07.13 тихо ()   4000 м    ясно 
+14.1 +13.4 96 +21  1000.7  -0.9  727  276           
21 28.07.13 тихо ()   4000 м    6/0 верхняя 
[Ci fib]
+12.7 +12.4 98 +18  1000.4  -0.5  726  277           
00 29.07.13 тихо ()   0500 м  туман  5/0 верхняя 
[Ci fib]
+12.7 +12.4 98 +18  1000.4  0.3  726  277  +12.2        влажная 
03 29.07.13 060 (СВ) 20000 м  дымка{туман}  8/0 верхняя 
[Ci fib]
+18.8 +15.6 82 +31  999.3  -1.3  726  270           
06 29.07.13 110 (В) 20000 м  {туман}  6/4 600 м кучево-дожд., верхняя 
[Cb cap|Ci fib]
+23.8 +15.8 61 +35  998.2  -0.6  725  265           
09 29.07.13 120 (ЮВ) 20000 м    9/8 600 м кучево-дожд., верхняя 
[Cb cap|Ci fib]
+24.4 +14.7 55 +33  997.5  -0.6  725  265           
12 29.07.13 250 (З) 20000 м  гроза, ливневой дождь  10/10 600 м кучево-дожд. 
[Cb cap]
+16.3 +15.3 94 +28  999.7  1.3  726  273    +25.8     
15 29.07.13 230 (ЮЗ) 4000 м  слаб. ливневой дождь{гроза}  10/10 600 м кучево-дожд. 
[Cb cap]
+16.2 +15.6 96 +29  999.9  0.3  726  273           
18 29.07.13 тихо ()   4000 м  в посл. час ливневой дождь{гроза}  10/10 600 м кучево-дожд. 
[Cb cap]
+16 +15.6 97 +27  1000.2  0.3  726  273           
21 29.07.13 240 (ЮЗ) 4000 м  {ливн. осадки}  9/6 600 м кучево-дожд., средняя 
[Cb cap|Ac trans]
+15.3 +14.8 97 +26  1000.4  0.1  726  274           
00 30.07.13 240 (ЮЗ) 20000 м  {ливн. осадки}  9/5 600 м кучево-дожд., средняя 
[Cb cap|Ac trans]
+16.8 +15.5 92 +28  1000.5  0.2  727  272  +15.1    0.5    влажная 
03 30.07.13 220 (ЮЗ) 20000 м  {туман}  8/6 600 м кучево-дожд., верхняя 
[Cb cap|Ci fib]
+19.4 +15.9 80 +31  1000.8  0.5  727  270           
06 30.07.13 310 (СЗ) 20000 м  {туман}  8/8 600 м кучево-дожд. 
[Cb cap]
+22.1 +15.9 68 +33  1000.2  -0.3  727  267           
09 30.07.13 220 (ЮЗ) 20000 м  гроза без осадков  8/8 600 м кучево-дожд. 
[Cb cap]
+23 +16.1 65 +35  1000.4  0.3  727  267           
12 30.07.13 тихо ()   20000 м  {гроза}  9/9 600 м кучево-дожд. 
[Cb cap]
+20.6 +15.7 74 +31  1002.4  1.7  728  269    +24.7       
15 30.07.13 230 (ЮЗ) 4000 м  ливневой дождь  10/10 600 м кучево-дожд. 
[Cb cap]
+19.1 +17.3 89 +35  1003.8  1.1  729  271           
18 30.07.13 220 (ЮЗ) 4000 м  {ливн. осадки}  8/0 верхняя 
[Ci fib]
+16.9 +15.7 93 +29  1004.1  0.1  729  273           
21 30.07.13 тихо ()   4000 м    10/8 2000 м средняя, верхняя 
[Ac trans|Ci fib]
+15.7 +15.2 97 +25  1004.7  0.5  730  275           
00 31.07.13 250 (З) 20000 м    9/8 2000 м средняя, верхняя 
[Ac trans|Ci fib]
+17.5 +16.4 93 +31  1005.2  0.6  730  273  +15.6    0.9    влажная 
03 31.07.13 050 (СВ) 20000 м    9/5 600 м кучево-дожд., средняя 
[Cb cap|Ac trans]
+22.1 +16.3 70 +34  1004.9  0.2  730  269           
06 31.07.13 250 (З) 20000 м  слаб. ливневой дождь  9/8 600 м кучево-дожд., верхняя 
[Cb cap|Ci fib]
+23.1 +17.7 72 +38  1004.6  -0.3  730  267           
09 31.07.13 280 (З) 20000 м  {ливн. осадки}  9/8 600 м кучево-дожд., верхняя 
[Cb cap|Ci fib]
+24.7 +14.1 52 +33  1004  -0.3  730  267           
12 31.07.13 тихо ()   20000 м  в посл. час ливневой дождь  9/8 600 м кучево-дожд., средняя 
[Cb cap|Ac trans]
+21.1 +15.6 71 +32  1005.4  0.9  730  270    +25.4  0.0     
15 31.07.13 тихо ()   4000 м    9/6 600 м кучево-дожд., средняя 
[Cb cap|Ac trans]
+17.8 +15.2 85 +28  1006  0.3  731  273           
18 31.07.13 тихо ()   4000 м  слаб. ливневой дождь  9/8 600 м кучево-дожд., средняя 
[Cb cap|Ac trans]
+17.2 +15.9 92 +28  1005.6  -0.5  730  273           
21 31.07.13 тихо ()   н/о  ливневой дождь  10/10 600 м кучево-дожд. 
[Cb cap]
+16.7 +16.1 96 +28  1006  0.4  731  274           
00 01.08.13 тихо ()   2000 м  ливневой дождь  10/10 600 м кучево-дожд. 
[Cb cap]
+17.1 +16.5 96 +29  1006.6  0.6  731  274  +16.6      влажная 
03 01.08.13 250 (З) 4000 м  ливневой дождь  10/8 600 м кучево-дожд., средняя 
[Cb cap|Ac As]
+17 +16.5 97 +30  1006.6  731  274           
06 01.08.13 280 (З) 4000 м  ливневой дождь  10/10 300 м кучево-дожд. 
[Cb cap]
+17.2 +16.8 98 +32  1006.2  -0.4  731  273           
Время (UTC), дата Ветер
(°,м/с) 
Видим.   Явления Облачность Т
(°С)
Тd
(°С)
f(%) Тe
(°С)
Pmin
(гПа)
dP
(гПа)
Po
(мм)
O2
(г/м3)
Тmin Tmax R s Состояние
почвы